Moses Lake, WA
on Monday, December 31, 2012

Monday
Previous Day Next Day
Daily Summary
 ActualAverageRecord
Temperature
Mean Temperature °F 28°F  
Max Temperature 28°F 34°F 63°F (1998)
Min Temperature 26°F 22°F -3°F (1984)
Degree Days
Heating Degree Days 38 37  
Month to date heating degree days 940 1123  
Since 1 July heating degree days 2208 2587  
Cooling Degree Days 0 0  
Month to date cooling degree days 0 0  
Year to date cooling degree days 719 615  
Moisture
Dew Point 23°F   
Average Humidity 84    
Maximum Humidity 92    
Minimum Humidity 75    
Precipitation
Precipitation 0.00 in 0.06 in 0.26 in (1986)
Month to date precipitation 1.87 1.44  
Year to date precipitation 9.61 9.11  
Wind
Wind Speed 4 mph   
Max Wind Speed 16 mph   
Max Gust Speed mph   
Visibility 8 miles   
Events     

Key: T is trace of precipitation, MM is missing value
Source: NWS Daily Summary
Time(PST)TemperatureDew PointHumidity Pressure Visibility Wind DirectionWind SpeedGust SpeedPrecipitationEvents Conditions
12:52 AM 26.1°F 23.0°F 88% 30.38 in 9.0 miles North 4.6 mph - N/A   Overcast
1:52 AM 26.1°F 24.1°F 92% 30.39 in 9.0 miles NE 4.6 mph - N/A   Overcast
2:52 AM 26.1°F 24.1°F 92% 30.39 in 8.0 miles North 3.5 mph - N/A   Overcast
3:18 AM 26.6°F 24.8°F 93% 30.33 in 8.0 miles Calm Calm - N/A   Overcast
3:52 AM 27.0°F 24.1°F 89% 30.38 in 8.0 miles Calm Calm - N/A   Overcast
4:52 AM 27.0°F 24.1°F 89% 30.38 in 8.0 miles Calm Calm - N/A   Overcast
5:07 AM 26.6°F 24.8°F 93% 30.33 in 8.0 miles North 3.5 mph - N/A   Overcast
5:49 AM 26.6°F 24.8°F 93% 30.33 in 8.0 miles NNE 3.5 mph - N/A   Overcast
5:52 AM 27.0°F 24.1°F 89% 30.38 in 8.0 miles NNE 3.5 mph - N/A   Overcast
6:52 AM 27.0°F 24.1°F 89% 30.38 in 8.0 miles Calm Calm - N/A   Overcast
7:01 AM 26.6°F 24.8°F 93% 30.33 in 7.0 miles NE 3.5 mph - N/A   Overcast
7:18 AM 26.6°F 24.8°F 93% 30.33 in 7.0 miles Calm Calm - N/A   Overcast
7:52 AM 27.0°F 23.0°F 85% 30.37 in 6.0 miles Calm Calm - N/A   Overcast
8:52 AM 27.0°F 23.0°F 85% 30.39 in 6.0 miles Calm Calm - N/A   Overcast
8:59 AM 26.6°F 23.0°F 86% 30.34 in 6.0 miles Calm Calm - N/A   Overcast
9:13 AM 26.6°F 24.8°F 93% 30.34 in 6.0 miles Calm Calm - N/A   Overcast
9:52 AM 28.0°F 24.1°F 85% 30.40 in 6.0 miles North 3.5 mph - N/A   Overcast
10:11 AM 28.4°F 24.8°F 86% 30.36 in 6.0 miles North 4.6 mph - N/A   Overcast
10:52 AM 28.0°F 24.1°F 85% 30.40 in 7.0 miles NNW 3.5 mph - N/A   Overcast
11:52 AM 28.0°F 23.0°F 81% 30.40 in 8.0 miles NNW 4.6 mph - N/A   Overcast
12:52 PM 28.0°F 23.0°F 81% 30.40 in 8.0 miles North 6.9 mph - N/A   Overcast
1:52 PM 28.0°F 23.0°F 81% 30.41 in 9.0 miles NNW 6.9 mph - N/A   Overcast
2:52 PM 28.4°F 23.0°F 80% 30.38 in 9.0 miles NNW 6.9 mph - N/A   Overcast
3:52 PM 28.0°F 21.9°F 78% 30.44 in 10.0 miles NNW 5.8 mph - N/A   Overcast
4:52 PM 27.0°F 21.9°F 81% 30.45 in 10.0 miles NNW 6.9 mph - N/A   Overcast
5:30 PM 26.6°F 21.2°F 80% 30.40 in 10.0 miles NNW 5.8 mph - N/A   Unknown
5:52 PM 27.0°F 21.9°F 81% 30.45 in 10.0 miles NNW 6.9 mph - N/A   Overcast
6:52 PM 27.0°F 21.9°F 81% 30.46 in 10.0 miles NW 4.6 mph - N/A   Overcast
6:59 PM 26.6°F 21.2°F 80% 30.41 in 10.0 miles NW 3.5 mph - N/A   Overcast
7:52 PM 27.0°F 21.9°F 81% 30.46 in 10.0 miles NW 3.5 mph - N/A   Unknown
8:28 PM 26.6°F 23.0°F 86% 30.43 in 10.0 miles NW 3.5 mph - N/A   Overcast
8:52 PM 27.0°F 23.0°F 85% 30.49 in 10.0 miles NNW 6.9 mph - N/A   Overcast
9:52 PM 28.0°F 23.0°F 81% 30.51 in 10.0 miles NNW 6.9 mph - N/A   Overcast
9:59 PM 28.4°F 23.0°F 80% 30.46 in 10.0 miles NNW 5.8 mph - N/A   Unknown
10:44 PM 28.4°F 21.2°F 74% 30.47 in 10.0 miles NW 6.9 mph - N/A   Overcast
10:52 PM 28.0°F 21.9°F 78% 30.53 in 10.0 miles NW 6.9 mph - N/A   Overcast
11:52 PM 28.0°F 21.9°F 78% 30.54 in 10.0 miles NW 6.9 mph - N/A   Overcast
Moon Phase
Dec. 31 Jan. 04 Jan. 11 Jan. 18 Jan. 26
Sunrise:07:43 AM (PST) Moon Rise:08:08 PM (PST)12/31
Sunset:04:17 PM (PST) Moon Set:09:14 AM (PST)12/31

Copyright © 2014 The Weather Underground, Inc.